EW8555 Weather Reports


time (UTC)temp
C
wind
direction
speed
KPH
gust
KPH
rain 1hr
cm
rain 24hr
cm
rain mn
cm
humidity
%
barometer
mb
20260901173057 21 292 3.2 9.7 0.00 0.51 0.08 68 1015.4
20260901171553 21 263 0.0 4.8 0.00 0.51 0.08 69 1015.2
20260901170053 21 262 1.6 11.3 0.00 0.51 0.08 67 1015.2
20260901164546 21 279 3.2 11.3 0.00 0.51 0.08 66 1015.2
20260901163104 22 268 6.4 14.5 0.00 0.51 0.08 66 1015.2
20260901161550 22 278 4.8 11.3 0.00 0.51 0.08 66 1015.1
20260901160043 22 254 4.8 8.0 0.00 0.51 0.08 66 1015.1
20260901154547 22 281 1.6 6.4 0.03 0.51 0.08 69 1015.2
20260901153041 21 251 4.8 14.5 0.03 0.51 0.08 68 1015.3
20260901151550 20 282 4.8 14.5 0.03 0.51 0.08 71 1015.2
20260901150044 20 294 3.2 14.5 0.03 0.51 0.08 71 1015.2
20260901144538 21 284 4.8 14.5 0.00 0.48 0.05 65 1015.3
20260901143041 21 312 4.8 17.7 0.00 0.48 0.05 64 1015.2
20260901141544 21 287 1.6 12.9 0.03 0.48 0.05 69 1015.3
20260901140037 20 309 3.2 8.0 0.03 0.48 0.05 73 1015.3
20260901134537 20 296 3.2 14.5 0.03 0.48 0.05 70 1015.4
20260901133044 21 308 6.4 17.7 0.03 0.48 0.05 67 1015.5
20260901131540 22 294 8.0 20.9 0.00 0.46 0.03 60 1015.4
20260901130034 22 268 8.0 24.1 0.00 0.46 0.03 60 1015.3
20260901124532 22 314 6.4 27.4 0.00 0.46 0.03 64 1015.4
20260901123036 21 241 16.1 30.6 0.00 0.46 0.03 63 1015.5
20260901121529 21 247 8.0 24.1 0.00 0.46 0.03 62 1015.5
20260901120028 21 256 16.1 27.4 0.00 0.46 0.03 60 1015.5
20260901114528 21 333 11.3 27.4 0.00 0.46 0.03 61 1015.5
20260901113024 21 269 6.4 19.3 0.03 0.46 0.03 66 1015.6
20260901111523 20 298 8.0 27.4 0.03 0.46 0.03 69 1015.7
20260901110023 20 290 6.4 16.1 0.03 0.46 0.03 71 1015.7
20260901104525 20 282 8.0 19.3 0.03 0.46 0.03 69 1015.8
20260901103020 21 250 8.0 25.7 0.00 0.43 0.00 65 1015.6
20260901101519 21 304 4.8 30.6 0.00 0.43 0.00 65 1015.6
20260901100017 20 238 6.4 22.5 0.00 0.43 0.00 68 1015.4
20260901094514 20 302 4.8 20.9 0.00 0.43 0.00 69 1015.5
20260901093011 19 259 14.5 27.4 0.00 0.43 0.00 71 1015.5
20260901091510 19 281 12.9 27.4 0.00 0.43 0.00 72 1015.5
20260901090009 18 276 8.0 20.9 0.00 0.43 0.00 74 1015.4
20260901084503 18 255 9.7 27.4 0.00 0.43 0.00 75 1015.4
20260901083101 18 266 3.2 17.7 0.00 0.43 0.00 77 1015.3
20260901081557 17 260 6.4 20.9 0.00 0.43 0.00 79 1015.1
20260901080111 17 304 8.0 20.9 0.00 0.43 0.00 80 1015.0
20260901074607 17 242 6.4 20.9 0.00 0.58 0.00 82 1014.9
20260901073052 16 273 6.4 20.9 0.00 0.58 0.00 83 1014.8
20260901071549 16 260 3.2 27.4 0.00 0.58 0.00 84 1014.8
20260901070047 16 321 6.4 22.5 0.00 0.58 0.00 84 1014.7
20260901064545 16 254 9.7 22.5 0.00 0.64 0.00 85 1014.5
20260901063052 16 172 8.0 24.1 0.00 0.64 0.00 85 1014.4
20260901061541 16 242 6.4 24.1 0.00 0.64 0.00 86 1014.3
20260901060042 16 257 9.7 22.5 0.00 0.64 0.00 86 1014.1
20260901054538 15 204 8.0 17.7 0.00 0.64 0.00 86 1014.0
20260901053040 15 230 4.8 17.7 0.00 0.64 0.00 87 1013.8
20260901051532 15 270 6.4 14.5 0.00 0.64 0.00 87 1013.7
20260901050028 15 235 6.4 17.7 0.00 0.64 0.00 87 1013.6
20260901044524 15 259 9.7 19.3 0.00 0.64 0.00 88 1013.4
20260901043022 15 271 3.2 14.5 0.00 0.64 0.00 88 1013.2
20260901041523 15 243 3.2 17.7 0.00 0.64 0.00 88 1013.1
20260901040020 15 254 6.4 17.7 0.00 0.64 0.00 88 1012.9
20260901034517 15 234 3.2 12.9 0.00 0.64 0.00 88 1012.8
20260901033016 15 275 3.2 14.5 0.00 0.64 0.00 88 1012.6
20260901031513 15 277 8.0 16.1 0.00 0.64 0.00 89 1012.5
20260901030012 15 288 8.0 19.3 0.00 0.64 0.00 89 1012.4
20260901024510 15 248 6.4 14.5 0.00 0.64 0.00 89 1012.4
20260901023008 15 225 4.8 19.3 0.00 0.64 0.00 89 1012.3
20260901021511 15 239 8.0 14.5 0.00 0.64 0.00 89 1012.3
20260901020005 15 220 6.4 16.1 0.00 0.64 0.00 90 1012.2
20260901014501 15 252 8.0 16.1 0.00 0.64 0.00 90 1012.2
20260901013102 15 180 6.4 17.7 0.00 0.64 0.00 90 1012.1
20260901011552 15 218 6.4 16.1 0.00 0.64 0.00 90 1012.1
20260901010105 15 188 8.0 20.9 0.00 0.64 0.00 91 1012.1
20260901004547 14 236 8.0 16.1 0.00 0.64 0.00 91 1012.1
20260901003046 14 198 9.7 22.5 0.00 0.64 0.00 91 1012.0
20260901001545 14 231 9.7 16.1 0.00 0.64 0.00 91 1012.0
20260901000044 14 213 6.4 16.1 0.00 0.64 0.00 91 1012.0
20260831234541 14 249 3.2 12.9 0.00 0.64 0.00 91 1012.1
20260831233045 14 236 4.8 17.7 0.00 0.64 0.00 91 1012.0
20260831231539 14 254 3.2 9.7 0.00 0.64 0.00 91 1012.0
20260831230038 14 250 4.8 9.7 0.00 0.64 0.00 91 1012.1
20260831224535 14 226 1.6 12.9 0.00 0.64 0.00 91 1011.9
20260831223033 14 234 4.8 14.5 0.00 0.64 0.00 91 1011.7
20260831221536 14 200 4.8 11.3 0.00 0.64 0.00 90 1011.6
20260831220030 14 245 3.2 11.3 0.00 0.64 0.00 90 1011.4
20260831214528 15 246 3.2 16.1 0.00 0.64 0.64 90 1011.5
20260831213026 15 213 4.8 16.1 0.00 0.64 0.64 90 1011.2
20260831211527 15 223 3.2 16.1 0.00 0.64 0.64 91 1011.1
20260831210026 15 209 4.8 12.9 0.00 0.64 0.64 91 1011.1
20260831204525 15 202 3.2 8.0 0.00 0.64 0.64 91 1011.0
20260831203024 15 213 3.2 9.7 0.00 0.64 0.64 90 1010.8
20260831201526 15 248 4.8 11.3 0.03 0.64 0.64 90 1010.8
20260831200024 15 209 6.4 14.5 0.20 0.64 0.64 89 1010.6
20260831194524 15 244 4.8 14.5 0.43 0.64 0.64 89 1010.5
20260831193032 15 224 1.6 8.0 0.43 0.64 0.64 87 1010.3
20260831191522 15 238 4.8 17.7 0.41 0.61 0.61 84 1010.3
20260831190121 17 235 12.9 33.8 0.23 0.43 0.43 78 1011.1
20260831184546 17 252 1.6 12.9 0.00 0.20 0.20 78 1010.0
20260831183054 17 266 0.0 12.9 0.00 0.20 0.20 77 1009.6
20260831181548 17 297 4.8 9.7 0.00 0.20 0.20 75 1009.4
20260831180058 18 300 9.7 20.9 0.00 0.20 0.20 70 1009.5
20260831174550 19 268 16.1 35.4 0.00 0.20 0.20 62 1009.8